Elmira, NY

4:01 PM EST on December 09, 2019 (GMT -0500)
Elmira-Corning Regional

Weather History for KELM - October, 2019

Change the Weather History Date:

Wednesday, October 2, 2019

  Actual Average Record
Temperature  
Mean Temperature 64 °F -  
Max Temperature 78 °F 65 °F 91 °F (1927)
Min Temperature 51 °F 43 °F 28 °F (2003)
Growing Degree Days 14 (Base 50)    
Moisture  
Dew Point 60 °F    
Average Humidity 86    
Maximum Humidity 100    
Minimum Humidity 74    
Precipitation  
Precipitation 0.03 in - - ()
Sea Level Pressure  
Sea Level Pressure 29.92 in    
Wind  
Wind Speed 6 mph (NNE)    
Max Wind Speed 14 mph    
Max Gust Speed 18 mph    
Visibility 10 miles    
Events Rain    
Averages and records for this station are not official NWS values.
T = Trace of Precipitation, MM = Missing Value Source: NWS Daily Summary

Daily Weather History Graph

Daily Weather History Graph

Search for Another Location

Airport or City:

Astronomy

Oct. 02, 2019 Rise Set
Actual Time 7:05 AM EDT 6:47 PM EDT
Civil Twilight 6:37 AM EDT 7:15 PM EDT
Nautical Twilight 6:05 AM EDT 7:48 PM EDT
Astronomical Twilight 5:32 AM EDT 8:20 PM EDT
Moon 11:32 AM EDT (10/2) 9:35 PM EDT (10/2)
Length of Visible Light 12h 38m
Length of Day
11h 42m
Waxing Crescent, 20% of the Moon is Illuminated
Oct 2
Waxing Crescent
Oct 5
First Quarter
Oct 13
Full
Oct 21
Last Quarter
Oct 27
New

Hourly Weather History & Observations

Time (EDT) Temp. Dew Point Humidity Pressure Visibility Wind Dir Wind Speed Gust Speed Precip Events Conditions
12:53 AM 71.1 °F 68.0 °F 90% 29.86 in 10.0 mi WSW 5.8 mph - N/A   Mostly Cloudy
1:53 AM 72.0 °F 68.0 °F 87% 29.85 in 10.0 mi WSW 8.1 mph - 0.00 in Rain Light Rain
2:53 AM 71.1 °F 68.0 °F 90% 29.85 in 10.0 mi Calm Calm - 0.00 in   Overcast
3:53 AM 69.1 °F 66.9 °F 93% 29.85 in 10.0 mi Calm Calm - N/A   Mostly Cloudy
4:53 AM 66.9 °F 66.0 °F 97% 29.84 in 7.0 mi Calm Calm - N/A   Partly Cloudy
5:53 AM 66.0 °F 66.0 °F 100% 29.84 in 4.0 mi Calm Calm - N/A   Mostly Cloudy
6:53 AM 66.9 °F 66.0 °F 97% 29.84 in 7.0 mi Calm Calm - N/A   Overcast
7:53 AM 69.1 °F 68.0 °F 96% 29.85 in 8.0 mi Calm Calm - N/A   Overcast
8:53 AM 70.0 °F 68.0 °F 93% 29.83 in 9.0 mi SW 3.5 mph - 0.00 in   Scattered Clouds
9:53 AM 73.9 °F 69.1 °F 85% 29.82 in 10.0 mi Calm Calm - N/A   Clear
10:53 AM 75.0 °F 69.1 °F 82% 29.83 in 10.0 mi Calm Calm - N/A   Overcast
11:53 AM 78.1 °F 69.1 °F 74% 29.83 in 10.0 mi ENE 4.6 mph - N/A   Overcast
12:15 PM 75.9 °F 68.0 °F 76% 29.86 in 10.0 mi NW 10.4 mph - N/A   Overcast
12:53 PM 75.0 °F 69.1 °F 82% 29.84 in 10.0 mi NNW 4.6 mph - 0.02 in   Mostly Cloudy
1:53 PM 75.9 °F 68.0 °F 76% 29.84 in 10.0 mi NE 11.5 mph - N/A   Overcast
2:13 PM 66.9 °F 64.0 °F 90% 29.87 in 7.0 mi NE 12.7 mph - 0.00 in Rain Light Rain
2:41 PM 64.9 °F 62.1 °F 90% 29.88 in 10.0 mi ENE 13.8 mph - 0.00 in   Overcast
2:53 PM 64.9 °F 62.1 °F 90% 29.87 in 10.0 mi NNE 8.1 mph - 0.00 in   Overcast
3:38 PM 64.0 °F 59.0 °F 84% 29.91 in 10.0 mi NNE 10.4 mph - N/A   Overcast
3:53 PM 64.0 °F 59.0 °F 84% 29.90 in 10.0 mi NNE 13.8 mph - N/A   Overcast
4:04 PM 63.0 °F 59.0 °F 87% 29.92 in 10.0 mi NE 11.5 mph - N/A   Overcast
4:53 PM 62.1 °F 57.0 °F 84% 29.93 in 10.0 mi NNE 12.7 mph 18.4 mph N/A   Overcast
5:17 PM 61.0 °F 55.9 °F 83% 29.94 in 10.0 mi NNE 12.7 mph - N/A   Overcast
5:53 PM 60.1 °F 55.0 °F 83% 29.96 in 10.0 mi NNE 10.4 mph - N/A   Overcast
6:21 PM 59.0 °F 55.0 °F 87% 29.96 in 10.0 mi NE 5.8 mph - N/A   Overcast
6:53 PM 57.9 °F 54.0 °F 87% 29.98 in 10.0 mi North 6.9 mph - N/A   Overcast
7:53 PM 55.9 °F 53.1 °F 90% 30.01 in 10.0 mi NNE 6.9 mph - N/A   Overcast
8:53 PM 55.0 °F 51.1 °F 86% 30.04 in 10.0 mi NNE 11.5 mph - N/A   Overcast
9:53 PM 54.0 °F 48.9 °F 83% 30.06 in 10.0 mi NNE 8.1 mph - N/A   Overcast
10:12 PM 54.0 °F 48.0 °F 80% 30.07 in 10.0 mi NNE 10.4 mph - N/A   Overcast
10:50 PM 51.8 °F 46.4 °F 82% 30.08 in 10.0 mi NNE 5.8 mph 16.1 mph 0.00 in Rain Light Rain
10:53 PM 52.0 °F 46.0 °F 80% 30.08 in 10.0 mi NNE 5.8 mph - 0.00 in   Overcast
11:14 PM 52.0 °F 46.0 °F 80% 30.08 in 10.0 mi NNE 8.1 mph - 0.00 in Rain Light Rain
11:53 PM 51.1 °F 46.0 °F 83% 30.06 in 10.0 mi NE 10.4 mph - 0.01 in   Overcast